WLF2019 ROAH-VHHH

Flight info

Callsign WLF2019
Flight time N/A
Altitude 38000
Route GANJU Y576 LILRA Y573 SEDKU R595 APU A1 ELATO V522 ABBEY
Aircraft L101/H-SDFGHIRWXY/S

Departure

Time 2026-04-21 20:38
Airport Naha International Airport (ROAH)

Arrival

Time N/A
Airport Hong Kong International Airport (VHHH)
Time Latitude Longitude Altitude Speed Heading
2026-04-21 19:58 26.21074 127.64974 26 ft 0 kts 87°
2026-04-21 20:26 26.21074 127.64973 26 ft 0 kts 87°
2026-04-21 20:27 26.21073 127.64954 26 ft 3 kts 87°
2026-04-21 20:27 26.21072 127.64928 31 ft 2 kts 87°
2026-04-21 20:27 26.21076 127.64902 26 ft 3 kts 126°
2026-04-21 20:27 26.21095 127.64884 31 ft 3 kts 162°
2026-04-21 20:28 26.21120 127.64879 30 ft 4 kts 177°
2026-04-21 20:28 26.21147 127.64878 31 ft 4 kts 177°
2026-04-21 20:28 26.21174 127.64877 31 ft 4 kts 177°
2026-04-21 20:28 26.21201 127.64875 30 ft 4 kts 177°
2026-04-21 20:29 26.21224 127.64874 26 ft 2 kts 177°
2026-04-21 20:29 26.21250 127.64872 26 ft 4 kts 170°
2026-04-21 20:29 26.21277 127.64865 26 ft 4 kts 159°
2026-04-21 20:29 26.21298 127.64854 26 ft 1 kts 147°
2026-04-21 20:30 26.21299 127.64853 26 ft 0 kts 147°
2026-04-21 20:35 26.21296 127.64856 26 ft 2 kts 147°
2026-04-21 20:35 26.21273 127.64867 26 ft 5 kts 162°
2026-04-21 20:35 26.21225 127.64874 26 ft 9 kts 176°
2026-04-21 20:35 26.21144 127.64879 29 ft 14 kts 178°
2026-04-21 20:36 26.21038 127.64882 27 ft 17 kts 178°
2026-04-21 20:36 26.20927 127.64854 28 ft 17 kts 235°
2026-04-21 20:36 26.20906 127.64713 22 ft 21 kts 266°
2026-04-21 20:36 26.20902 127.64638 21 ft 0 kts 266°
2026-04-21 20:37 26.20901 127.64633 21 ft 2 kts 266°
2026-04-21 20:37 26.20899 127.64601 22 ft 6 kts 265°
2026-04-21 20:37 26.20886 127.64544 26 ft 9 kts 236°
2026-04-21 20:37 26.20825 127.64529 26 ft 11 kts 179°
2026-04-21 20:38 26.20697 127.64534 26 ft 38 kts 179°
2026-04-21 20:38 26.20127 127.64562 22 ft 126 kts 178°
2026-04-21 20:38 26.19026 127.64602 258 ft 182 kts 178°
2026-04-21 20:38 26.17685 127.64584 1180 ft 197 kts 181°
2026-04-21 20:39 26.16301 127.64508 2444 ft 205 kts 181°
2026-04-21 20:39 26.14818 127.64495 3427 ft 216 kts 179°
2026-04-21 20:39 26.13328 127.64544 4131 ft 213 kts 177°
2026-04-21 20:39 26.11931 127.64612 4648 ft 193 kts 176°
2026-04-21 20:40 26.10447 127.64700 4939 ft 237 kts 176°
2026-04-21 20:40 26.08702 127.64786 4979 ft 259 kts 178°
2026-04-21 20:40 26.06872 127.64593 4994 ft 271 kts 189°
2026-04-21 20:40 26.05025 127.64047 4994 ft 279 kts 198°
2026-04-21 20:41 26.03182 127.63254 4940 ft 291 kts 202°
2026-04-21 20:41 26.01261 127.62262 4841 ft 309 kts 206°
2026-04-21 20:41 25.99435 127.61206 4842 ft 282 kts 208°
2026-04-21 20:41 25.97835 127.60075 4926 ft 268 kts 218°
2026-04-21 20:42 25.96508 127.58598 5207 ft 273 kts 229°
2026-04-21 20:42 25.95289 127.56956 5527 ft 279 kts 230°
2026-04-21 20:42 25.93964 127.55311 5995 ft 292 kts 227°
2026-04-21 20:42 25.92553 127.53676 6597 ft 293 kts 228°
2026-04-21 20:43 25.91171 127.52026 7259 ft 290 kts 230°
2026-04-21 20:43 25.89868 127.50365 7974 ft 286 kts 232°
2026-04-21 20:43 25.88610 127.48687 8685 ft 282 kts 233°
2026-04-21 20:43 25.87375 127.47015 9353 ft 280 kts 233°
2026-04-21 20:44 25.86135 127.45341 9948 ft 281 kts 233°
2026-04-21 20:44 25.84883 127.43656 10417 ft 286 kts 233°
2026-04-21 20:44 25.83585 127.41855 10939 ft 313 kts 237°
2026-04-21 20:44 25.82640 127.39658 11393 ft 319 kts 259°
2026-04-21 20:45 25.82513 127.37204 11887 ft 321 kts 274°
2026-04-21 20:45 25.82630 127.34707 12362 ft 326 kts 271°
2026-04-21 20:45 25.82576 127.32185 12863 ft 329 kts 268°
2026-04-21 20:45 25.82455 127.29635 13372 ft 332 kts 269°
2026-04-21 20:46 25.82442 127.27099 13868 ft 334 kts 272°
2026-04-21 20:46 25.82577 127.24490 14328 ft 336 kts 275°
2026-04-21 20:46 25.82790 127.21925 14779 ft 337 kts 276°
2026-04-21 20:46 25.83023 127.19328 15253 ft 338 kts 276°
2026-04-21 20:47 25.83250 127.16733 15716 ft 340 kts 276°
2026-04-21 20:47 25.83475 127.14115 16290 ft 338 kts 276°
2026-04-21 20:47 25.83695 127.11568 17454 ft 313 kts 276°
2026-04-21 20:47 25.83899 127.09246 18614 ft 302 kts 276°
2026-04-21 20:48 25.84117 127.06845 19250 ft 321 kts 276°
2026-04-21 20:48 25.84347 127.04318 19834 ft 339 kts 276°
2026-04-21 20:48 25.84590 127.01641 20369 ft 358 kts 276°
2026-04-21 20:48 25.84846 126.98824 20851 ft 376 kts 275°
2026-04-21 20:49 25.85110 126.95902 21360 ft 383 kts 275°
2026-04-21 20:49 25.85373 126.92977 21848 ft 387 kts 275°
2026-04-21 20:49 25.85645 126.89950 22359 ft 390 kts 275°
2026-04-21 20:49 25.85913 126.86960 22869 ft 392 kts 275°
2026-04-21 20:50 25.86180 126.83979 23383 ft 394 kts 275°
2026-04-21 20:50 25.86451 126.80951 23847 ft 396 kts 275°
2026-04-21 20:50 25.86722 126.77886 24290 ft 398 kts 274°
2026-04-21 20:50 25.86668 126.74819 24706 ft 400 kts 260°
2026-04-21 20:51 25.85756 126.71909 25140 ft 403 kts 244°
2026-04-21 20:51 25.84379 126.69160 25607 ft 408 kts 244°
2026-04-21 20:51 25.83127 126.66335 26073 ft 410 kts 248°
2026-04-21 20:51 25.82001 126.63429 26549 ft 412 kts 248°
2026-04-21 20:52 25.80816 126.60517 27063 ft 414 kts 246°
2026-04-21 20:52 25.79502 126.57706 27898 ft 407 kts 243°
2026-04-21 20:52 25.78121 126.54985 28499 ft 406 kts 242°
2026-04-21 20:52 25.76714 126.52236 28825 ft 412 kts 243°
2026-04-21 20:53 25.75291 126.49428 28960 ft 422 kts 243°
2026-04-21 20:53 25.73861 126.46609 29101 ft 431 kts 243°
2026-04-21 20:53 25.72350 126.43651 29221 ft 439 kts 243°
2026-04-21 20:53 25.70847 126.40722 29359 ft 446 kts 242°
2026-04-21 20:54 25.69292 126.37715 29494 ft 454 kts 242°
2026-04-21 20:54 25.67707 126.34654 29648 ft 460 kts 242°
2026-04-21 20:54 25.66109 126.31556 29884 ft 464 kts 242°
2026-04-21 20:54 25.64501 126.28455 30192 ft 466 kts 242°
2026-04-21 20:55 25.62886 126.25335 30575 ft 467 kts 242°
2026-04-21 20:55 25.61257 126.22244 31084 ft 464 kts 242°
2026-04-21 20:55 25.59642 126.19167 31681 ft 459 kts 242°
2026-04-21 20:55 25.58059 126.16118 32322 ft 452 kts 243°
2026-04-21 20:56 25.56509 126.13124 32998 ft 446 kts 243°
2026-04-21 20:56 25.54972 126.10157 33717 ft 440 kts 243°
2026-04-21 20:56 25.53460 126.07243 34345 ft 435 kts 243°
2026-04-21 20:56 25.51951 126.04349 34838 ft 432 kts 243°
2026-04-21 20:57 25.50438 126.01457 35271 ft 434 kts 243°
2026-04-21 20:57 25.48926 125.98571 35649 ft 435 kts 243°
2026-04-21 20:57 25.47406 125.95671 36009 ft 435 kts 243°
2026-04-21 20:57 25.45890 125.92771 36368 ft 435 kts 243°
2026-04-21 20:58 25.44375 125.89877 36735 ft 436 kts 243°
2026-04-21 20:58 25.42857 125.86967 37152 ft 436 kts 243°
2026-04-21 20:58 25.41363 125.84107 37582 ft 435 kts 243°
2026-04-21 20:58 25.39818 125.81164 37823 ft 438 kts 243°
2026-04-21 20:59 25.36735 125.75290 37952 ft 449 kts 243°
2026-04-21 20:59 25.33592 125.69304 37961 ft 451 kts 243°
2026-04-21 21:00 25.30444 125.63322 37965 ft 450 kts 243°
2026-04-21 21:00 25.27293 125.57345 37969 ft 450 kts 243°
2026-04-21 21:01 25.24164 125.51417 37962 ft 430 kts 242°
2026-04-21 21:01 25.21152 125.45724 37965 ft 436 kts 243°
2026-04-21 21:02 25.18062 125.39865 37965 ft 433 kts 243°
2026-04-21 21:02 25.15027 125.34131 37969 ft 437 kts 243°
2026-04-21 21:03 25.11949 125.28327 37957 ft 438 kts 242°
2026-04-21 21:03 25.08458 125.22801 37937 ft 442 kts 235°
2026-04-21 21:04 25.04637 125.17527 37946 ft 443 kts 236°
2026-04-21 21:04 25.01478 125.13037 37949 ft 443 kts 236°
2026-04-21 21:05 24.97683 125.07678 37943 ft 443 kts 235°
2026-04-21 21:05 24.93891 125.02368 37944 ft 443 kts 235°
2026-04-21 21:06 24.90078 124.97034 37927 ft 444 kts 235°
2026-04-21 21:06 24.86326 124.91637 37941 ft 441 kts 243°
2026-04-21 21:07 24.85134 124.88572 37933 ft 431 kts 260°
2026-04-21 21:07 24.84899 124.85323 37973 ft 425 kts 272°
2026-04-21 21:07 24.84981 124.78767 37910 ft 434 kts 269°
2026-04-21 21:08 24.85033 124.72115 37903 ft 433 kts 274°
2026-04-21 21:08 24.85605 124.65506 37939 ft 433 kts 276°
2026-04-21 21:09 24.86298 124.58909 37945 ft 433 kts 276°
2026-04-21 21:09 24.87010 124.52321 37948 ft 433 kts 277°
2026-04-21 21:10 24.87740 124.45780 37947 ft 433 kts 277°
2026-04-21 21:10 24.88478 124.39195 37951 ft 433 kts 277°
2026-04-21 21:11 24.89216 124.32607 37952 ft 433 kts 277°
2026-04-21 21:11 24.89950 124.26029 37950 ft 433 kts 277°
2026-04-21 21:12 24.90675 124.19446 37952 ft 433 kts 277°
2026-04-21 21:12 24.91407 124.12872 37950 ft 433 kts 277°
2026-04-21 21:13 24.92133 124.06287 37950 ft 433 kts 277°
2026-04-21 21:13 24.92855 123.99707 37948 ft 433 kts 277°
2026-04-21 21:14 24.93576 123.93121 37947 ft 433 kts 277°
2026-04-21 21:14 24.94295 123.86525 37946 ft 433 kts 277°
2026-04-21 21:15 24.95008 123.79983 37939 ft 433 kts 277°
2026-04-21 21:15 24.95721 123.73385 37945 ft 433 kts 277°
2026-04-21 21:16 24.96430 123.66787 37941 ft 433 kts 277°
2026-04-21 21:16 24.97135 123.60199 37944 ft 433 kts 277°
2026-04-21 21:17 24.97840 123.53602 37943 ft 433 kts 277°
2026-04-21 21:17 24.98543 123.47005 37942 ft 433 kts 277°
2026-04-21 21:18 24.99233 123.40462 37941 ft 433 kts 277°
2026-04-21 21:18 24.99927 123.33865 37938 ft 433 kts 277°
2026-04-21 21:19 25.00620 123.27278 37936 ft 433 kts 277°
2026-04-21 21:19 25.01306 123.20677 37939 ft 433 kts 277°